SCP
0 0 0 0 0 0 0 0 0 0 0 0 0 0 0 0 0 0 0 0 0 0 0 0 0 0 0 0 0 0 0 0 0 0 0 0 0 0 0 0 0 0 0 0 0 0 0 0 0 0 0 0 0 0
0 0 0 0 0 0 0 0 0 0 0 0 0 0 0 0 0 0 0 0 0 0 0 0 0 0 0 0 0 0 0 0 0 0 0 0 0 0 0 0 0 0 0 0 0 0 0 0 0 0 0 0 0 0
0 0 0 0 0 0 0 0 0 0 0 0 0 0 0 0 0 0 0 0 0 0 0 0 0 0 0 0 0 0 0 0 0 0 0 0 0 0 0 0 0 0 0 0 0 0 0 0 0 0 0 0 0 0
0 0 0 0 0 0 0 0 0 0 0 0 0 0 0 0 0 0 0 0 0 0 0 0 0 0 0 0 0 0 0 0 0 0 0 0 0 0 0 0 0 0 0 0 0 0 0 0 0 0 0 0 0 0
0 0 0 0 0 0 0 0 0 0 0 0 0 0 0 0 0 0 0 0 0 0 0 0 0 0 0 0 0 0 0 0 0 0 0 0 0 0 0 0 0 0 0 0 0 0 0 0 0 0 0 0 0 0
0 0 0 0 0 0 0 0 0 0 0 0 0 0 0 0 0 0 0 0 0 0 0 0 0 0 0 0 0 0 0 0 0 0 0 0 0 0 0 0 0 0 0 0 0 0 0 0 0 0 0 0 0 0
0 0 0 0 0 0 0 0 0 0 0 0 0 0 0 0 0 0 0 0 0 0 0 0 0 0 0 0 0 0 0 0 0 0 0 0 0 0 0 0 0 0 0 0 0 0 0 0 0 0 0 0 0 0
0 0 0 0 0 0 0 0 0 0 0 0 0 0 0 0 0 0 0 0 0 0 0 0 0 0 0 0 0 0 0 0 0 0 0 0 0 0 0 0 0 0 0 0 0 0 0 0 0 0 0 0 0 0
0 0 0 0 0 0 0 0 0 0 0 0 0 0 0 0 0 0 0 0 0 0 0 0 0 0 0 0 0 0 0 0 0 0 0 0 0 0 0 0 0 0 0 0 0 0 0 0 0 0 0 0 0 0
0 0 0 0 0 0 0 0 0 0 0 0 0 0 0 0 0 0 0 0 0 0 0 0 0 0 0 0 0 0 0 0 0 0 0 0 0 0 0 0 0 0 0 0 0 0 0 0 0 0 0 0 0 0
0 0 0 0 0 0 0 0 0 0 0 0 0 0 0 0 0 0 0 0 0 0 0 0 0 0 0 0 0 0 0 0 0 0 0 0 0 0 0 0 0 0 0 0 0 0 0 0 0 0 0 0 0 0
0 0 0 0 0 0 0 0 0 0 0 0 0 0 0 0 0 0 0 0 0 0 0 0 0 0 0 0 0 0 0 0 0 0 0 0 0 0 0 0 0 0 0 0 0 0 0 0 0 0 0 0 0 0
0 0 0 0 0 0 0 0 0 0 0 0 0 0 0 0 0 0 0 0 0 0 0 0 0 0 0 0 0 0 0 0 0 0 0 0 0 0 0 0 0 0 0 0 0 0 0 0 0 0 0 0 0 0
0 0 0 0 0 0 0 0 0 0 0 0 0 0 0 0 0 0 0 0 0 0 0 0 0 0 0 0 0 0 0 0 0 0 0 0 0 0 0 0 0 0 0 0 0 0 0 0 0 0 0 0 0 0
0 0 0 0 0 0 0 0 0 0 0 0 0 0 0 0 0 0 0 0 0 0 0 0 0 0 0 0 0 0 0 0 0 0 0 0 0 0 0 0 0 0 0 0 0 0 0 0 0 0 0 0 0 0
0 0 0 0 0 0 0 0 0 0 0 0 0 0 0 0 0 0 0 0 0 0 0 0 0 0 0 0 0 0 0 0 0 0 0 0 0 -0 0 0 0 0 0 0 0 0 0 0 0 0 0 0 0 0
0 0 0 0 0 0 0 0 0 0 0 0 0 0 0 0 0 0 0 0 0 0 0 0 0 0 0 0 0 0 0 0 0 0 0 -0 -0 -0 0 0 0 -0 0 0 0 0 0 0 0 0 0 0 0 0
0 0 0 0 0 0 0 0 0 0 0 0 0 0 0 0 0 0 0 0 0 0 0 0 0 0 0 0 0 0 0 0 0 0 0 0 0 -0 -0 -0 -0 -0 0 0 0 0 0 0 0 0 0 0 0 0
0 0 0 0 0 0 0 0 0 0 0 0 0 0 0 0 0 0 0 0 0 0 0 0 0 0 0 0 0 0 0 0 0 0 0 0 0 0 0 -0 -0 -0 -0 0 0 0 0 0 0 0 0 0 0 0
0 -0 0 0 0 0 0 0 0 0 0 0 0 0 0 0 0 0 0 0 0 0 0 0 0 0 0 0 0 0 0 0 0 0 0 0 0 0 0 0 0 0 0 0 0 0 0 0 0 0 0 0 0 0
0 0 0 0 0 0 0 0 0 0 0 0 0 0 0 0 0 0 0 0 0 0 0 0 0 0 0 0 0 -0 0 0 0 -0 0 0 0 0 0 0 0 0 0 0 0 0 0 0 0 0 0 0 0 0
0 0 0 0 0 0 0 0 0 0 0 0 0 0 0 0 0 0 0 0 0 0 0 0 0 0 0 0 0 0 -0 -0 -0 -0 -0 0 0 0 0 0 0 0 0 0 0 0 0 0 -0 0 0 0 0 0
0 0 0 0 0 0 0 0 0 0 0 0 0 0 0 0 0 0 0 0 0 0 0 0 0 0 0 0 0 0 0 0 -0 -0 0 0 0 0 0 0 0 0 0 0 0 -0 0 -0 -0 0 0 0 0 0
0 0 0 0 0 0 -0 -0 -0 -0 -0 0 0 0 0 0 0 0 0 0 0 0 0 0 0 0 0 0 0 0 0 0 -0 0 0 0 -0 0 -0 0 0 0 0 0 0 0 -0 0 0 0 0 0 0 0
0 0 -0 -0 -0 -0 -0 -0 0 0 -0 0 0 0 0 0 0 0 0 0 0 0 0 0 0 0 0 0 0 0 0 0 0 0 0 0 0 -0 -0 0 0 0 0 0 0 0 -0 0 0 0 0 0 0 0
-0 -0 0 0 0 -0 -0 -0 -0 0 0 -0 -0 0 0 0 0 0 0 0 0 -0 0 0 0 0 0 0 0 0 0 0 0 0 0 -0 -0 0 0 0 0 0 0 -0 -0 0 0 0 0 0 0 0 0 0
0 0 -0 -0 0 -0 0 -0 -0 -0 0 0 0 0 0 0 0 0 -0 0 0 -0 0 0 0 0 0 0 0 0 0 0 0 -0 -0 -0 -0 0 0 0 0 0 0 0 -0 0 -0 0 0 0 0 0 0 0
-0 -0 0 -0 0 -0 0 -0 0 0 0 0 0 0 0 0 0 0 -0 -0 -0 -0 0 0 0 0 0 0 0 0 0 0 0 -0 -0 0 0 0 0 0 0 0 0 0 0 0 -0 -0 0 0 0 0 0 0
0 0 -0 -0 -0 0 0 0 0 0 0 0 0 0 0 0 0 0 -0 -0 -0 0 0 0 0 0 0 0 0 0 0 0 0 -0 -0 0 0 0 0 0 0 0 0 0 0 0 -0 0 0 0 0 0 0 0
0 0 0 0 0 0 0 0 0 0 0 0 -0 0 0 0 -0 -0 -0 -0 -0 0 -0 -0 0 0 0 0 0 0 0 0 0 0 0 0 0 0 0 0 0 0 0 0 0 0 0 0 0 0 0 0 0 0
-0 -0 0 0 0 0 0 0 0 0 0 0 -0 0 0 0 0 0 -0 -0 0 0 0 0 0 0 0 0 0 0 0 0 0 0 0 0 0 0 0 0 0 0 0 0 0 0 0 0 0 0 0 0 0 0
0 0 0 0 0 0 0 -0 0 0 0 -0 -0 0 0 0 0 0 0 0 0 0 0 0 0 0 0 0 0 0 0 0 0 0 0 0 0 0 0 0 0 0 0 0 0 0 0 0 0 0 0 0 0 0
0 0 0 0 0 0 0 -0 -0 0 0 -0 -0 -0 0 0 0 0 0 0 0 0 0 0 0 0 0 0 0 0 0 0 0 0 0 0 -0 0 0 0 0 0 0 0 0 0 0 0 0 0 0 0 0 0
Wind_Speed_500mb
23 25 25 24 22 21 20 19 18 16 15 13 10 10 10 8 6 10 12 11 12 7 16 11 8 8 3 2 1 13 9 5 5 5 7 8 7 11 7 11 13 15 13 9 5 4 14 21 13 15 15 9 18 30
22 24 23 22 21 20 19 18 17 16 14 12 11 11 12 12 8 6 16 18 16 16 13 12 17 31 32 19 14 7 5 8 4 6 1 4 4 3 9 8 3 4 15 11 17 15 10 33 16 24 18 17 20 27
25 23 22 21 23 21 21 19 17 16 15 13 12 11 11 12 11 9 7 15 15 16 34 38 41 38 44 46 37 15 6 6 5 7 2 3 9 8 9 11 8 7 11 6 6 14 34 33 34 48 29 30 25 26
26 23 22 20 22 20 19 18 18 19 18 16 15 14 13 13 11 8 3 4 4 3 6 8 11 25 17 24 29 41 47 26 23 23 9 3 4 7 6 5 8 10 20 11 9 17 16 19 22 31 46 38 35 31
22 25 24 21 19 18 17 15 14 14 15 14 14 14 15 14 13 10 6 10 12 6 7 20 36 31 38 42 39 37 40 42 38 8 9 7 8 3 3 3 5 16 14 10 12 21 11 25 30 28 37 44 50 41
18 17 18 19 19 18 16 15 13 11 10 9 9 11 12 15 14 8 2 5 15 11 5 7 16 25 11 17 32 34 35 36 25 16 13 15 24 10 6 8 21 38 32 32 32 42 45 47 36 33 38 42 43 40
29 26 26 23 20 18 16 15 13 12 10 8 6 9 11 14 14 9 3 10 8 7 5 10 15 9 24 15 7 19 43 44 35 19 21 26 18 22 5 16 13 34 49 48 51 45 44 43 32 36 35 34 36 35
26 29 30 26 22 19 17 14 12 12 10 8 9 9 11 12 11 11 15 14 7 3 6 3 9 17 14 8 6 6 7 25 24 18 10 14 18 9 10 18 41 61 68 78 82 85 81 68 57 40 33 37 45 48
23 25 27 27 26 24 20 17 15 12 10 9 9 7 4 3 4 3 6 17 23 13 4 3 3 7 14 7 8 5 3 3 10 10 10 17 7 12 17 26 48 59 66 60 66 63 61 70 53 42 39 48 55 54
24 19 21 26 25 22 18 17 14 12 10 7 4 4 6 5 7 11 4 5 9 11 7 7 10 7 9 12 9 14 3 4 3 6 11 8 18 70 53 67 80 86 92 80 58 53 55 61 73 66 60 60 61 61
26 22 20 22 25 24 19 17 13 12 11 5 6 4 8 8 5 3 2 4 7 6 13 11 21 11 18 1 6 9 4 3 4 7 6 6 8 11 39 55 70 87 93 88 84 83 79 56 49 57 61 63 70 60
23 20 15 16 18 25 20 16 13 15 10 10 9 9 10 7 6 5 5 5 8 8 8 7 8 11 9 12 8 8 5 1 9 2 3 6 7 34 38 48 52 54 49 64 69 72 65 75 62 42 62 57 68 59
23 22 21 20 21 25 21 13 15 19 17 10 4 5 5 4 3 9 12 6 4 6 5 5 6 8 10 12 11 2 4 9 8 3 7 7 32 59 58 56 61 62 68 45 45 51 51 49 51 41 52 56 61 56
20 24 23 23 24 22 23 14 17 22 11 5 6 2 8 5 7 7 6 4 5 4 7 17 11 8 9 6 8 6 8 1 7 7 8 4 45 68 69 65 61 71 83 53 39 37 44 43 47 43 48 47 60 58
22 23 25 25 27 24 24 19 21 25 7 5 4 5 6 12 8 5 7 8 7 9 17 10 9 7 6 5 7 3 5 9 8 7 5 39 62 67 73 78 68 71 85 64 40 29 36 37 44 44 46 53 60 50
22 22 22 23 27 26 24 25 24 20 3 3 5 6 13 7 12 14 15 18 8 21 16 6 3 3 10 7 5 12 6 10 4 4 40 51 62 73 69 76 59 63 83 73 46 34 35 45 49 49 49 63 55 43
21 18 17 25 29 26 29 30 19 11 9 8 12 26 30 17 15 13 15 14 13 13 2 3 5 10 4 6 8 7 6 4 16 39 47 54 59 68 69 69 54 73 79 66 42 36 35 47 54 51 67 61 49 37
29 20 19 29 37 36 37 20 11 9 11 18 13 22 22 27 29 26 23 16 9 14 8 6 6 8 9 10 5 4 9 15 31 46 52 54 60 64 68 68 67 64 67 54 30 24 30 49 58 67 72 61 50 41
21 18 19 30 41 32 11 13 10 8 22 18 29 33 37 41 51 53 52 50 47 37 11 9 10 9 10 14 17 20 15 34 47 57 61 59 61 65 71 73 57 50 38 21 16 27 23 44 75 76 68 58 48 41
24 20 18 33 34 14 8 7 11 9 8 14 24 38 43 40 48 47 48 47 45 18 17 11 12 29 24 35 31 26 45 51 52 58 68 68 67 67 70 73 49 34 21 14 23 23 43 58 62 57 53 42 41 38
28 22 23 42 32 14 6 7 11 10 12 14 20 34 24 37 47 53 59 53 31 21 23 49 65 69 68 70 76 64 56 60 66 58 65 74 70 66 68 61 24 17 17 26 32 43 59 61 44 51 43 42 36 32
22 26 35 30 6 13 11 15 12 8 10 17 14 18 16 16 31 49 49 35 34 60 61 66 82 85 76 74 75 77 81 79 79 71 66 64 60 62 60 51 11 9 26 33 40 61 45 31 55 46 43 41 36 28
16 24 9 12 8 10 8 10 11 10 8 8 7 7 11 13 17 26 17 30 46 64 68 74 81 83 77 71 62 64 68 79 83 71 67 63 52 52 49 30 14 13 28 50 45 36 29 45 46 44 43 39 34 25
10 9 8 7 12 7 6 9 12 10 10 8 5 9 9 14 23 16 13 42 70 69 66 68 64 73 74 71 70 72 78 72 67 64 62 55 48 51 43 16 19 29 25 24 26 33 46 44 46 45 41 37 31 20
10 10 8 9 9 8 8 6 9 10 8 9 6 9 9 12 6 8 11 45 46 56 65 67 69 71 70 69 71 80 75 59 55 53 50 43 49 41 33 30 29 27 45 44 39 42 48 48 47 44 40 36 28 18
4 14 18 16 11 9 8 6 8 10 6 8 11 13 8 6 9 13 7 13 24 32 33 35 52 59 68 72 73 61 53 45 42 45 51 44 35 36 33 34 27 38 43 28 37 52 50 49 47 44 41 34 25 15
7 9 17 18 13 9 11 18 22 13 10 10 6 7 8 10 10 9 17 17 21 30 20 18 31 43 46 54 52 45 43 41 38 41 35 34 32 33 34 40 34 35 28 21 37 47 47 42 43 42 40 34 22 13
17 10 11 9 15 20 9 8 7 9 7 12 10 5 6 6 6 12 44 39 34 21 10 16 6 20 23 21 22 24 29 32 30 31 31 28 27 28 26 35 35 49 37 30 25 39 42 34 32 37 38 30 22 15
12 12 11 11 13 15 12 14 10 11 19 14 7 6 7 9 28 41 52 40 19 18 20 20 15 12 12 16 20 19 19 19 24 28 29 32 34 34 34 43 48 37 28 33 31 34 28 26 26 31 30 22 15 16
12 21 10 10 7 8 14 17 25 36 36 22 22 19 14 22 20 39 57 45 12 19 26 22 12 8 13 22 24 21 15 20 15 9 25 45 54 55 37 34 38 38 40 37 35 35 31 30 35 34 28 22 21 24
9 7 9 11 11 19 25 22 25 28 24 19 34 23 23 21 24 45 74 77 44 15 10 8 15 9 12 19 23 26 24 31 34 46 49 49 48 44 40 34 27 27 27 28 30 33 34 34 30 26 23 20 29 25
12 17 9 7 8 11 10 10 12 10 16 19 20 41 37 20 26 53 82 71 46 39 26 17 10 7 25 27 34 31 36 50 53 47 42 43 44 39 34 30 26 22 22 23 25 27 28 26 28 21 16 24 26 21
12 14 13 9 6 4 7 6 6 8 9 15 15 30 33 26 19 40 74 74 62 53 33 20 27 34 33 38 34 47 58 50 44 48 47 31 33 33 30 25 22 20 21 25 27 27 26 23 22 22 26 23 19 18
Wind_Direction_500mb
235 238 234 234 234 232 236 242 249 256 262 269 279 294 307 308 283 240 236 238 227 241 259 248 231 214 236 326 92 333 353 332 33 91 151 204 173 214 147 183 179 172 157 196 108 163 277 175 118 164 220 226 216 215
233 245 231 223 220 222 224 229 238 249 256 261 268 274 284 291 301 253 223 233 242 247 261 265 248 247 259 262 286 291 277 302 304 90 200 104 204 143 164 215 54 204 186 190 175 210 238 193 215 227 260 237 242 238
237 236 233 226 222 218 225 230 237 244 249 254 258 266 277 290 304 307 263 230 245 271 278 272 272 264 260 259 248 231 252 261 340 1 220 226 237 135 166 232 185 238 164 190 101 244 237 249 248 251 250 248 268 257
238 222 221 219 220 224 228 228 237 245 249 250 251 250 258 276 292 308 297 242 222 285 287 292 248 253 253 236 232 233 233 246 272 305 319 251 234 200 225 243 186 189 148 172 256 275 266 260 263 274 249 254 252 242
219 218 218 221 226 229 230 232 239 242 246 246 246 250 248 253 267 283 248 219 214 227 298 292 295 287 249 245 243 242 247 256 260 244 209 229 247 210 252 93 258 198 177 163 216 224 227 275 292 269 252 251 248 240
212 215 220 222 221 221 223 226 229 235 244 247 244 241 244 245 249 275 208 250 219 223 292 311 317 301 331 287 252 244 240 231 217 201 220 232 232 212 205 230 236 245 251 250 242 268 285 286 273 256 258 259 245 236
219 222 219 220 222 221 218 225 231 236 247 255 263 254 243 240 232 210 115 156 144 171 245 305 298 297 331 338 301 246 229 233 228 222 225 232 224 206 183 245 236 251 260 265 269 273 269 264 259 273 260 253 233 225
223 226 224 222 219 217 225 224 230 233 241 257 271 275 258 244 244 230 210 190 164 193 228 283 284 315 357 339 330 348 232 203 210 226 227 199 197 217 258 229 253 264 272 271 269 266 265 271 259 242 237 227 210 217
223 220 217 217 215 219 222 226 233 234 236 249 281 275 242 190 155 150 190 204 211 239 317 247 284 276 328 352 309 308 278 224 213 224 208 165 187 219 226 234 258 261 261 265 284 278 272 250 244 239 238 221 217 221
200 209 215 213 212 211 212 218 232 225 221 236 263 128 105 104 126 129 56 145 168 197 224 225 227 261 322 354 313 339 334 264 272 254 168 186 238 244 255 265 268 269 268 269 266 271 266 253 250 248 249 244 230 227
200 206 215 214 210 204 197 217 224 205 190 175 138 120 124 130 141 127 148 168 177 223 215 233 235 260 290 232 249 276 259 247 280 251 172 255 291 238 267 272 284 281 277 269 264 261 264 272 273 254 234 228 225 220
183 191 201 201 200 189 197 216 204 185 171 159 150 137 156 166 182 188 206 170 209 230 190 188 237 225 241 240 229 243 233 40 248 307 198 270 258 5 354 342 342 346 307 290 281 270 265 258 263 267 238 232 225 215
196 200 202 200 190 190 193 202 181 172 153 141 129 132 155 191 189 199 178 217 238 205 203 223 254 219 212 224 243 250 242 232 310 252 242 233 348 351 346 338 340 347 345 318 309 279 265 256 249 257 235 233 219 201
198 201 204 197 189 186 184 189 178 169 161 160 167 220 178 195 240 198 206 188 199 189 301 286 261 220 210 197 221 216 230 89 256 244 236 282 338 342 344 338 334 341 343 329 314 288 267 249 230 235 233 227 198 191
202 202 201 198 192 187 186 179 178 175 169 175 157 235 222 245 254 300 326 302 307 322 340 281 249 243 244 247 207 252 219 233 228 242 259 321 330 335 335 337 337 334 336 331 325 293 252 227 217 221 221 201 187 177
196 197 205 192 189 184 179 174 176 177 224 169 236 258 239 251 273 255 267 259 340 327 320 229 237 203 240 212 195 223 207 214 233 282 315 328 335 343 336 334 329 320 322 329 317 299 248 228 212 209 196 177 170 171
183 198 186 183 175 178 181 174 163 187 196 214 235 240 259 278 253 253 286 296 305 319 238 184 242 216 297 236 230 224 228 205 313 325 332 335 332 337 336 329 307 311 318 323 290 287 249 220 203 181 164 167 162 156
199 183 176 173 172 174 169 168 181 201 235 231 228 237 232 248 266 260 254 261 243 310 290 253 275 235 225 226 228 227 243 289 316 319 322 327 329 330 335 333 325 315 313 311 288 251 226 207 180 173 168 162 160 161
178 179 180 174 178 165 151 182 197 242 232 235 243 238 239 252 256 263 267 272 274 277 248 233 235 214 225 232 259 262 308 322 323 316 315 321 329 333 333 334 327 322 318 307 266 216 202 201 177 167 167 166 164 165
172 172 175 168 185 170 163 205 205 247 244 233 234 241 240 249 267 261 264 260 259 238 209 223 223 235 247 250 251 271 298 302 310 313 314 319 324 329 331 335 331 324 315 240 206 205 188 178 164 168 165 160 162 164
162 165 181 185 182 184 202 212 229 241 263 246 258 242 244 253 256 256 258 257 238 225 230 237 244 249 247 251 262 271 273 284 294 302 306 310 316 322 325 333 334 303 242 209 179 176 166 160 167 181 162 166 168 162
171 161 165 183 143 193 247 228 231 251 248 250 258 230 239 234 240 244 256 226 232 236 235 237 241 244 243 245 248 255 265 273 279 288 296 302 304 314 321 324 303 197 195 200 182 161 155 175 184 175 168 169 171 166
164 169 169 160 170 214 249 227 227 230 237 246 234 232 247 232 239 262 225 231 238 246 250 250 250 247 249 254 257 261 262 264 269 278 284 294 295 304 312 307 225 155 186 158 154 162 174 198 191 178 174 174 174 172
164 180 189 186 206 255 229 226 222 246 244 250 232 249 242 235 257 223 251 256 255 256 251 251 254 250 245 247 248 251 255 257 266 271 276 283 286 298 305 274 188 176 148 163 163 182 207 208 190 186 181 180 177 176
165 181 190 215 220 238 227 244 217 222 248 225 240 258 257 217 242 240 242 265 267 259 257 255 250 246 245 247 248 248 250 255 265 271 269 269 283 279 277 258 200 189 191 176 171 185 209 196 191 188 186 187 182 182
210 203 196 202 205 203 215 249 228 211 241 235 236 257 277 234 231 245 247 255 266 274 277 259 242 239 239 239 244 247 246 248 268 264 273 276 262 266 259 231 195 176 206 216 211 216 203 199 193 190 190 187 186 197
259 240 224 223 225 233 254 255 271 267 258 243 235 235 224 237 241 258 315 308 332 337 341 270 229 235 240 239 239 241 249 258 260 267 270 267 257 245 220 223 208 184 208 206 217 221 213 195 185 190 194 188 186 206
236 249 213 219 221 228 248 256 245 234 259 250 268 254 265 242 261 296 300 315 284 294 320 350 290 230 233 236 232 233 238 249 246 254 249 242 236 236 231 218 220 185 193 232 213 205 202 182 183 195 195 190 195 186
236 237 233 266 254 248 237 226 254 242 245 229 243 250 257 270 325 332 343 344 314 272 270 301 281 243 218 208 224 227 220 221 230 215 219 228 224 201 178 157 179 205 182 161 177 182 190 192 196 198 187 179 175 160
247 230 226 241 241 248 248 255 274 298 319 335 326 299 289 312 341 4 16 13 325 258 246 267 248 219 202 182 171 172 192 199 199 195 158 141 141 143 155 138 133 152 173 186 184 181 180 181 174 169 173 174 171 161
245 225 225 234 246 270 289 296 300 299 299 324 1 347 336 328 336 353 13 12 45 108 117 167 187 204 200 183 174 151 148 147 136 133 126 119 117 123 131 149 165 162 161 172 183 186 181 175 175 170 162 168 170 169
215 209 216 233 263 288 269 279 287 312 347 353 357 2 351 338 349 5 17 24 49 67 100 115 100 174 177 179 155 147 151 145 145 152 154 150 142 135 130 128 128 136 148 152 155 159 162 162 158 162 175 170 172 176
218 232 231 252 258 258 239 254 311 330 354 10 355 360 2 353 355 355 10 27 40 62 88 92 114 124 143 131 127 140 146 135 135 137 131 127 139 131 123 114 118 130 142 151 153 157 158 162 171 168 162 163 167 175
Wind_Speed_850mb
23 25 25 24 22 21 20 19 18 16 15 13 10 10 10 8 6 10 12 11 12 7 16 11 8 8 3 2 1 13 9 5 5 5 7 8 7 11 7 11 13 15 13 9 5 4 14 21 13 15 15 9 18 30
22 24 23 22 21 20 19 18 17 16 14 12 11 11 12 12 8 6 16 18 16 16 13 12 17 31 32 19 14 7 5 8 4 6 1 4 4 3 9 8 3 4 15 11 17 15 10 33 16 24 18 17 20 27
25 23 22 21 23 21 21 19 17 16 15 13 12 11 11 12 11 9 7 15 15 16 34 38 41 38 44 46 37 15 6 6 5 7 2 3 9 8 9 11 8 7 11 6 6 14 34 33 34 48 29 30 25 26
26 23 22 20 22 20 19 18 18 19 18 16 15 14 13 13 11 8 3 4 4 3 6 8 11 25 17 24 29 41 47 26 23 23 9 3 4 7 6 5 8 10 20 11 9 17 16 19 22 31 46 38 35 31
22 25 24 21 19 18 17 15 14 14 15 14 14 14 15 14 13 10 6 10 12 6 7 20 36 31 38 42 39 37 40 42 38 8 9 7 8 3 3 3 5 16 14 10 12 21 11 25 30 28 37 44 50 41
18 17 18 19 19 18 16 15 13 11 10 9 9 11 12 15 14 8 2 5 15 11 5 7 16 25 11 17 32 34 35 36 25 16 13 15 24 10 6 8 21 38 32 32 32 42 45 47 36 33 38 42 43 40
29 26 26 23 20 18 16 15 13 12 10 8 6 9 11 14 14 9 3 10 8 7 5 10 15 9 24 15 7 19 43 44 35 19 21 26 18 22 5 16 13 34 49 48 51 45 44 43 32 36 35 34 36 35
26 29 30 26 22 19 17 14 12 12 10 8 9 9 11 12 11 11 15 14 7 3 6 3 9 17 14 8 6 6 7 25 24 18 10 14 18 9 10 18 41 61 68 78 82 85 81 68 57 40 33 37 45 48
23 25 27 27 26 24 20 17 15 12 10 9 9 7 4 3 4 3 6 17 23 13 4 3 3 7 14 7 8 5 3 3 10 10 10 17 7 12 17 26 48 59 66 60 66 63 61 70 53 42 39 48 55 54
24 19 21 26 25 22 18 17 14 12 10 7 4 4 6 5 7 11 4 5 9 11 7 7 10 7 9 12 9 14 3 4 3 6 11 8 18 70 53 67 80 86 92 80 58 53 55 61 73 66 60 60 61 61
26 22 20 22 25 24 19 17 13 12 11 5 6 4 8 8 5 3 2 4 7 6 13 11 21 11 18 1 6 9 4 3 4 7 6 6 8 11 39 55 70 87 93 88 84 83 79 56 49 57 61 63 70 60
23 20 15 16 18 25 20 16 13 15 10 10 9 9 10 7 6 5 5 5 8 8 8 7 8 11 9 12 8 8 5 1 9 2 3 6 7 34 38 48 52 54 49 64 69 72 65 75 62 42 62 57 68 59
23 22 21 20 21 25 21 13 15 19 17 10 4 5 5 4 3 9 12 6 4 6 5 5 6 8 10 12 11 2 4 9 8 3 7 7 32 59 58 56 61 62 68 45 45 51 51 49 51 41 52 56 61 56
20 24 23 23 24 22 23 14 17 22 11 5 6 2 8 5 7 7 6 4 5 4 7 17 11 8 9 6 8 6 8 1 7 7 8 4 45 68 69 65 61 71 83 53 39 37 44 43 47 43 48 47 60 58
22 23 25 25 27 24 24 19 21 25 7 5 4 5 6 12 8 5 7 8 7 9 17 10 9 7 6 5 7 3 5 9 8 7 5 39 62 67 73 78 68 71 85 64 40 29 36 37 44 44 46 53 60 50
22 22 22 23 27 26 24 25 24 20 3 3 5 6 13 7 12 14 15 18 8 21 16 6 3 3 10 7 5 12 6 10 4 4 40 51 62 73 69 76 59 63 83 73 46 34 35 45 49 49 49 63 55 43
21 18 17 25 29 26 29 30 19 11 9 8 12 26 30 17 15 13 15 14 13 13 2 3 5 10 4 6 8 7 6 4 16 39 47 54 59 68 69 69 54 73 79 66 42 36 35 47 54 51 67 61 49 37
29 20 19 29 37 36 37 20 11 9 11 18 13 22 22 27 29 26 23 16 9 14 8 6 6 8 9 10 5 4 9 15 31 46 52 54 60 64 68 68 67 64 67 54 30 24 30 49 58 67 72 61 50 41
21 18 19 30 41 32 11 13 10 8 22 18 29 33 37 41 51 53 52 50 47 37 11 9 10 9 10 14 17 20 15 34 47 57 61 59 61 65 71 73 57 50 38 21 16 27 23 44 75 76 68 58 48 41
24 20 18 33 34 14 8 7 11 9 8 14 24 38 43 40 48 47 48 47 45 18 17 11 12 29 24 35 31 26 45 51 52 58 68 68 67 67 70 73 49 34 21 14 23 23 43 58 62 57 53 42 41 38
28 22 23 42 32 14 6 7 11 10 12 14 20 34 24 37 47 53 59 53 31 21 23 49 65 69 68 70 76 64 56 60 66 58 65 74 70 66 68 61 24 17 17 26 32 43 59 61 44 51 43 42 36 32
22 26 35 30 6 13 11 15 12 8 10 17 14 18 16 16 31 49 49 35 34 60 61 66 82 85 76 74 75 77 81 79 79 71 66 64 60 62 60 51 11 9 26 33 40 61 45 31 55 46 43 41 36 28
16 24 9 12 8 10 8 10 11 10 8 8 7 7 11 13 17 26 17 30 46 64 68 74 81 83 77 71 62 64 68 79 83 71 67 63 52 52 49 30 14 13 28 50 45 36 29 45 46 44 43 39 34 25
10 9 8 7 12 7 6 9 12 10 10 8 5 9 9 14 23 16 13 42 70 69 66 68 64 73 74 71 70 72 78 72 67 64 62 55 48 51 43 16 19 29 25 24 26 33 46 44 46 45 41 37 31 20
10 10 8 9 9 8 8 6 9 10 8 9 6 9 9 12 6 8 11 45 46 56 65 67 69 71 70 69 71 80 75 59 55 53 50 43 49 41 33 30 29 27 45 44 39 42 48 48 47 44 40 36 28 18
4 14 18 16 11 9 8 6 8 10 6 8 11 13 8 6 9 13 7 13 24 32 33 35 52 59 68 72 73 61 53 45 42 45 51 44 35 36 33 34 27 38 43 28 37 52 50 49 47 44 41 34 25 15
7 9 17 18 13 9 11 18 22 13 10 10 6 7 8 10 10 9 17 17 21 30 20 18 31 43 46 54 52 45 43 41 38 41 35 34 32 33 34 40 34 35 28 21 37 47 47 42 43 42 40 34 22 13
17 10 11 9 15 20 9 8 7 9 7 12 10 5 6 6 6 12 44 39 34 21 10 16 6 20 23 21 22 24 29 32 30 31 31 28 27 28 26 35 35 49 37 30 25 39 42 34 32 37 38 30 22 15
12 12 11 11 13 15 12 14 10 11 19 14 7 6 7 9 28 41 52 40 19 18 20 20 15 12 12 16 20 19 19 19 24 28 29 32 34 34 34 43 48 37 28 33 31 34 28 26 26 31 30 22 15 16
12 21 10 10 7 8 14 17 25 36 36 22 22 19 14 22 20 39 57 45 12 19 26 22 12 8 13 22 24 21 15 20 15 9 25 45 54 55 37 34 38 38 40 37 35 35 31 30 35 34 28 22 21 24
9 7 9 11 11 19 25 22 25 28 24 19 34 23 23 21 24 45 74 77 44 15 10 8 15 9 12 19 23 26 24 31 34 46 49 49 48 44 40 34 27 27 27 28 30 33 34 34 30 26 23 20 29 25
12 17 9 7 8 11 10 10 12 10 16 19 20 41 37 20 26 53 82 71 46 39 26 17 10 7 25 27 34 31 36 50 53 47 42 43 44 39 34 30 26 22 22 23 25 27 28 26 28 21 16 24 26 21
12 14 13 9 6 4 7 6 6 8 9 15 15 30 33 26 19 40 74 74 62 53 33 20 27 34 33 38 34 47 58 50 44 48 47 31 33 33 30 25 22 20 21 25 27 27 26 23 22 22 26 23 19 18
Wind_Direction_850mb
235 238 234 234 234 232 236 242 249 256 262 269 279 294 307 308 283 240 236 238 227 241 259 248 231 214 236 326 92 333 353 332 33 91 151 204 173 214 147 183 179 172 157 196 108 163 277 175 118 164 220 226 216 215
233 245 231 223 220 222 224 229 238 249 256 261 268 274 284 291 301 253 223 233 242 247 261 265 248 247 259 262 286 291 277 302 304 90 200 104 204 143 164 215 54 204 186 190 175 210 238 193 215 227 260 237 242 238
237 236 233 226 222 218 225 230 237 244 249 254 258 266 277 290 304 307 263 230 245 271 278 272 272 264 260 259 248 231 252 261 340 1 220 226 237 135 166 232 185 238 164 190 101 244 237 249 248 251 250 248 268 257
238 222 221 219 220 224 228 228 237 245 249 250 251 250 258 276 292 308 297 242 222 285 287 292 248 253 253 236 232 233 233 246 272 305 319 251 234 200 225 243 186 189 148 172 256 275 266 260 263 274 249 254 252 242
219 218 218 221 226 229 230 232 239 242 246 246 246 250 248 253 267 283 248 219 214 227 298 292 295 287 249 245 243 242 247 256 260 244 209 229 247 210 252 93 258 198 177 163 216 224 227 275 292 269 252 251 248 240
212 215 220 222 221 221 223 226 229 235 244 247 244 241 244 245 249 275 208 250 219 223 292 311 317 301 331 287 252 244 240 231 217 201 220 232 232 212 205 230 236 245 251 250 242 268 285 286 273 256 258 259 245 236
219 222 219 220 222 221 218 225 231 236 247 255 263 254 243 240 232 210 115 156 144 171 245 305 298 297 331 338 301 246 229 233 228 222 225 232 224 206 183 245 236 251 260 265 269 273 269 264 259 273 260 253 233 225
223 226 224 222 219 217 225 224 230 233 241 257 271 275 258 244 244 230 210 190 164 193 228 283 284 315 357 339 330 348 232 203 210 226 227 199 197 217 258 229 253 264 272 271 269 266 265 271 259 242 237 227 210 217
223 220 217 217 215 219 222 226 233 234 236 249 281 275 242 190 155 150 190 204 211 239 317 247 284 276 328 352 309 308 278 224 213 224 208 165 187 219 226 234 258 261 261 265 284 278 272 250 244 239 238 221 217 221
200 209 215 213 212 211 212 218 232 225 221 236 263 128 105 104 126 129 56 145 168 197 224 225 227 261 322 354 313 339 334 264 272 254 168 186 238 244 255 265 268 269 268 269 266 271 266 253 250 248 249 244 230 227
200 206 215 214 210 204 197 217 224 205 190 175 138 120 124 130 141 127 148 168 177 223 215 233 235 260 290 232 249 276 259 247 280 251 172 255 291 238 267 272 284 281 277 269 264 261 264 272 273 254 234 228 225 220
183 191 201 201 200 189 197 216 204 185 171 159 150 137 156 166 182 188 206 170 209 230 190 188 237 225 241 240 229 243 233 40 248 307 198 270 258 5 354 342 342 346 307 290 281 270 265 258 263 267 238 232 225 215
196 200 202 200 190 190 193 202 181 172 153 141 129 132 155 191 189 199 178 217 238 205 203 223 254 219 212 224 243 250 242 232 310 252 242 233 348 351 346 338 340 347 345 318 309 279 265 256 249 257 235 233 219 201
198 201 204 197 189 186 184 189 178 169 161 160 167 220 178 195 240 198 206 188 199 189 301 286 261 220 210 197 221 216 230 89 256 244 236 282 338 342 344 338 334 341 343 329 314 288 267 249 230 235 233 227 198 191
202 202 201 198 192 187 186 179 178 175 169 175 157 235 222 245 254 300 326 302 307 322 340 281 249 243 244 247 207 252 219 233 228 242 259 321 330 335 335 337 337 334 336 331 325 293 252 227 217 221 221 201 187 177
196 197 205 192 189 184 179 174 176 177 224 169 236 258 239 251 273 255 267 259 340 327 320 229 237 203 240 212 195 223 207 214 233 282 315 328 335 343 336 334 329 320 322 329 317 299 248 228 212 209 196 177 170 171
183 198 186 183 175 178 181 174 163 187 196 214 235 240 259 278 253 253 286 296 305 319 238 184 242 216 297 236 230 224 228 205 313 325 332 335 332 337 336 329 307 311 318 323 290 287 249 220 203 181 164 167 162 156
199 183 176 173 172 174 169 168 181 201 235 231 228 237 232 248 266 260 254 261 243 310 290 253 275 235 225 226 228 227 243 289 316 319 322 327 329 330 335 333 325 315 313 311 288 251 226 207 180 173 168 162 160 161
178 179 180 174 178 165 151 182 197 242 232 235 243 238 239 252 256 263 267 272 274 277 248 233 235 214 225 232 259 262 308 322 323 316 315 321 329 333 333 334 327 322 318 307 266 216 202 201 177 167 167 166 164 165
172 172 175 168 185 170 163 205 205 247 244 233 234 241 240 249 267 261 264 260 259 238 209 223 223 235 247 250 251 271 298 302 310 313 314 319 324 329 331 335 331 324 315 240 206 205 188 178 164 168 165 160 162 164
162 165 181 185 182 184 202 212 229 241 263 246 258 242 244 253 256 256 258 257 238 225 230 237 244 249 247 251 262 271 273 284 294 302 306 310 316 322 325 333 334 303 242 209 179 176 166 160 167 181 162 166 168 162
171 161 165 183 143 193 247 228 231 251 248 250 258 230 239 234 240 244 256 226 232 236 235 237 241 244 243 245 248 255 265 273 279 288 296 302 304 314 321 324 303 197 195 200 182 161 155 175 184 175 168 169 171 166
164 169 169 160 170 214 249 227 227 230 237 246 234 232 247 232 239 262 225 231 238 246 250 250 250 247 249 254 257 261 262 264 269 278 284 294 295 304 312 307 225 155 186 158 154 162 174 198 191 178 174 174 174 172
164 180 189 186 206 255 229 226 222 246 244 250 232 249 242 235 257 223 251 256 255 256 251 251 254 250 245 247 248 251 255 257 266 271 276 283 286 298 305 274 188 176 148 163 163 182 207 208 190 186 181 180 177 176
165 181 190 215 220 238 227 244 217 222 248 225 240 258 257 217 242 240 242 265 267 259 257 255 250 246 245 247 248 248 250 255 265 271 269 269 283 279 277 258 200 189 191 176 171 185 209 196 191 188 186 187 182 182
210 203 196 202 205 203 215 249 228 211 241 235 236 257 277 234 231 245 247 255 266 274 277 259 242 239 239 239 244 247 246 248 268 264 273 276 262 266 259 231 195 176 206 216 211 216 203 199 193 190 190 187 186 197
259 240 224 223 225 233 254 255 271 267 258 243 235 235 224 237 241 258 315 308 332 337 341 270 229 235 240 239 239 241 249 258 260 267 270 267 257 245 220 223 208 184 208 206 217 221 213 195 185 190 194 188 186 206
236 249 213 219 221 228 248 256 245 234 259 250 268 254 265 242 261 296 300 315 284 294 320 350 290 230 233 236 232 233 238 249 246 254 249 242 236 236 231 218 220 185 193 232 213 205 202 182 183 195 195 190 195 186
236 237 233 266 254 248 237 226 254 242 245 229 243 250 257 270 325 332 343 344 314 272 270 301 281 243 218 208 224 227 220 221 230 215 219 228 224 201 178 157 179 205 182 161 177 182 190 192 196 198 187 179 175 160
247 230 226 241 241 248 248 255 274 298 319 335 326 299 289 312 341 4 16 13 325 258 246 267 248 219 202 182 171 172 192 199 199 195 158 141 141 143 155 138 133 152 173 186 184 181 180 181 174 169 173 174 171 161
245 225 225 234 246 270 289 296 300 299 299 324 1 347 336 328 336 353 13 12 45 108 117 167 187 204 200 183 174 151 148 147 136 133 126 119 117 123 131 149 165 162 161 172 183 186 181 175 175 170 162 168 170 169
215 209 216 233 263 288 269 279 287 312 347 353 357 2 351 338 349 5 17 24 49 67 100 115 100 174 177 179 155 147 151 145 145 152 154 150 142 135 130 128 128 136 148 152 155 159 162 162 158 162 175 170 172 176
218 232 231 252 258 258 239 254 311 330 354 10 355 360 2 353 355 355 10 27 40 62 88 92 114 124 143 131 127 140 146 135 135 137 131 127 139 131 123 114 118 130 142 151 153 157 158 162 171 168 162 163 167 175